Meteo pe oră la Bolshoe Lohovo

Astăzi, 18 Mai, Marţi

Timp Temperatura Precipitaţii Vânt Presiune Umiditate
00:00 +17°C° 0 mm 3 m/s 735 mmHg 95%
01:00 +17°C° 0 mm 3 m/s 734 mmHg 96%
02:00 +17°C° 0 mm 3 m/s 734 mmHg 96%
03:00 +17°C° 0 mm 3 m/s 734 mmHg 95%
04:00 +17°C° 0 mm 3 m/s 734 mmHg 95%
05:00 +17°C° 0 mm 4 m/s 734 mmHg 95%
06:00 +18°C° 0 mm 4 m/s 734 mmHg 91%
07:00 +19°C° 0 mm 4 m/s 734 mmHg 87%
08:00 +21°C° 0 mm 4 m/s 734 mmHg 83%
09:00 +22°C° 0.1 mm 5 m/s 734 mmHg 75%
10:00 +25°C° 0.1 mm 5 m/s 734 mmHg 68%
11:00 +26°C° 0.1 mm 5 m/s 734 mmHg 60%
12:00 +27°C° 0.3 mm 5 m/s 734 mmHg 58%
13:00 +27°C° 0.3 mm 5 m/s 734 mmHg 55%
14:00 +27°C° 0.3 mm 5 m/s 734 mmHg 53%
15:00 +27°C° 0.1 mm 5 m/s 734 mmHg 53%
16:00 +26°C° 0.1 mm 5 m/s 734 mmHg 53%
17:00 +26°C° 0.1 mm 5 m/s 734 mmHg 54%
18:00 +23°C° 0 mm 4 m/s 733 mmHg 59%
19:00 +22°C° 0 mm 4 m/s 733 mmHg 64%
20:00 +20°C° 0 mm 4 m/s 733 mmHg 69%
21:00 +20°C° 0.1 mm 4 m/s 733 mmHg 72%
22:00 +19°C° 0.1 mm 4 m/s 733 mmHg 75%
23:00 +19°C° 0.1 mm 4 m/s 733 mmHg 78%

Mâine, 19 Mai, Miercuri

Timp Temperatura Precipitaţii Vânt Presiune Umiditate
00:00 +18°C° 0 mm 4 m/s 733 mmHg 80%
01:00 +17°C° 0 mm 5 m/s 733 mmHg 83%
02:00 +16°C° 0 mm 5 m/s 733 mmHg 85%
03:00 +17°C° 0 mm 4 m/s 733 mmHg 86%
04:00 +15°C° 0 mm 4 m/s 733 mmHg 87%
05:00 +16°C° 0 mm 3 m/s 733 mmHg 89%
06:00 +17°C° 0 mm 3 m/s 733 mmHg 83%
07:00 +18°C° 0 mm 4 m/s 734 mmHg 77%
08:00 +19°C° 0 mm 4 m/s 734 mmHg 71%
09:00 +19°C° 0 mm 5 m/s 734 mmHg 71%
10:00 +19°C° 0 mm 5 m/s 734 mmHg 70%
11:00 +19°C° 0 mm 5 m/s 734 mmHg 70%
12:00 +19°C° 0.4 mm 4 m/s 734 mmHg 73%
13:00 +18°C° 0.4 mm 4 m/s 734 mmHg 76%
14:00 +18°C° 0.4 mm 3 m/s 734 mmHg 80%
15:00 +18°C° 0.2 mm 3 m/s 734 mmHg 78%
16:00 +19°C° 0.2 mm 3 m/s 734 mmHg 77%
17:00 +20°C° 0.2 mm 3 m/s 735 mmHg 76%
18:00 +18°C° 0.1 mm 3 m/s 735 mmHg 82%
19:00 +17°C° 0.1 mm 2 m/s 735 mmHg 88%
20:00 +15°C° 0.1 mm 1 m/s 735 mmHg 94%
21:00 +15°C° 0 mm 1 m/s 735 mmHg 95%
22:00 +15°C° 0 mm 1 m/s 735 mmHg 95%
23:00 +14°C° 0 mm 1 m/s 735 mmHg 95%

Poimâine, 20 Mai, Joi

Timp Temperatura Precipitaţii Vânt Presiune Umiditate
00:00 +14°C° 0 mm 1 m/s 735 mmHg 96%
01:00 +14°C° 0 mm 1 m/s 735 mmHg 96%
02:00 +14°C° 0 mm 1 m/s 734 mmHg 97%
03:00 +14°C° 0.1 mm 1 m/s 734 mmHg 96%
04:00 +14°C° 0.1 mm 2 m/s 734 mmHg 96%
05:00 +14°C° 0.1 mm 2 m/s 734 mmHg 96%
06:00 +15°C° 0.1 mm 2 m/s 733 mmHg 93%
07:00 +16°C° 0.1 mm 3 m/s 733 mmHg 91%
08:00 +17°C° 0.1 mm 3 m/s 733 mmHg 88%
09:00 +18°C° 0.1 mm 4 m/s 733 mmHg 83%
10:00 +19°C° 0.1 mm 4 m/s 732 mmHg 78%
11:00 +19°C° 0.1 mm 4 m/s 732 mmHg 73%
12:00 +19°C° 0.7 mm 4 m/s 732 mmHg 76%
13:00 +17°C° 0.7 mm 5 m/s 732 mmHg 79%
14:00 +16°C° 0.7 mm 5 m/s 731 mmHg 82%
15:00 +16°C° 0.4 mm 5 m/s 731 mmHg 81%
16:00 +17°C° 0.4 mm 4 m/s 731 mmHg 80%
17:00 +15°C° 0.4 mm 4 m/s 731 mmHg 79%
18:00 +14°C° 0 mm 4 m/s 731 mmHg 83%
19:00 +13°C° 0 mm 3 m/s 731 mmHg 87%
20:00 +13°C° 0 mm 2 m/s 731 mmHg 91%
21:00 +12°C° 0 mm 2 m/s 731 mmHg 92%
22:00 +11°C° 0 mm 3 m/s 731 mmHg 93%
23:00 +10°C° 0 mm 3 m/s 731 mmHg 94%

21 Mai, Vineri

Timp Temperatura Precipitaţii Vânt Presiune Umiditate
00:00 +10°C° 0 mm 3 m/s 731 mmHg 90%
01:00 +10°C° 0 mm 3 m/s 731 mmHg 86%
02:00 +10°C° 0 mm 3 m/s 731 mmHg 82%
03:00 +9°C° 0 mm 3 m/s 731 mmHg 84%
04:00 +9°C° 0 mm 2 m/s 731 mmHg 85%
05:00 +10°C° 0 mm 1 m/s 732 mmHg 86%
06:00 +10°C° 0.3 mm 1 m/s 732 mmHg 89%
07:00 +10°C° 0.3 mm 1 m/s 732 mmHg 91%
08:00 +10°C° 0.3 mm 1 m/s 733 mmHg 94%
09:00 +9°C° 0.4 mm 3 m/s 733 mmHg 94%
10:00 +7°C° 0.4 mm 4 m/s 734 mmHg 94%
11:00 +7°C° 0.4 mm 5 m/s 735 mmHg 95%
12:00 +8°C° 0.1 mm 5 m/s 736 mmHg 88%
13:00 +9°C° 0.1 mm 5 m/s 737 mmHg 82%
14:00 +11°C° 0.1 mm 4 m/s 738 mmHg 75%
15:00 +13°C° 0 mm 4 m/s 738 mmHg 67%
16:00 +14°C° 0 mm 4 m/s 738 mmHg 58%
17:00 +16°C° 0 mm 3 m/s 738 mmHg 49%
18:00 +14°C° 0.1 mm 3 m/s 739 mmHg 58%
19:00 +12°C° 0.1 mm 3 m/s 739 mmHg 67%
20:00 +10°C° 0.1 mm 2 m/s 740 mmHg 76%
21:00 +9°C° 0 mm 2 m/s 740 mmHg 79%
22:00 +9°C° 0 mm 2 m/s 741 mmHg 82%
23:00 +8°C° 0 mm 2 m/s 741 mmHg 84%

22 Mai, Sâmbătă

Timp Temperatura Precipitaţii Vânt Presiune Umiditate
00:00 +7°C° 0 mm 2 m/s 741 mmHg 87%
01:00 +6°C° 0 mm 2 m/s 742 mmHg 89%
02:00 +5°C° 0 mm 2 m/s 742 mmHg 91%
03:00 +5°C° 0 mm 2 m/s 742 mmHg 90%
04:00 +6°C° 0 mm 2 m/s 743 mmHg 88%
05:00 +6°C° 0 mm 2 m/s 743 mmHg 87%
06:00 +8°C° 0 mm 2 m/s 743 mmHg 75%
07:00 +10°C° 0 mm 2 m/s 744 mmHg 64%
08:00 +12°C° 0 mm 3 m/s 744 mmHg 53%
09:00 +14°C° 0 mm 2 m/s 744 mmHg 48%
10:00 +15°C° 0 mm 2 m/s 744 mmHg 44%
11:00 +17°C° 0 mm 2 m/s 744 mmHg 39%
12:00 +17°C° 0 mm 2 m/s 743 mmHg 38%
13:00 +18°C° 0 mm 2 m/s 743 mmHg 37%
14:00 +19°C° 0 mm 2 m/s 743 mmHg 36%
15:00 +19°C° 0 mm 2 m/s 743 mmHg 39%
16:00 +18°C° 0 mm 2 m/s 743 mmHg 42%
17:00 +18°C° 0 mm 2 m/s 743 mmHg 45%
18:00 +16°C° 0 mm 2 m/s 743 mmHg 54%
19:00 +14°C° 0 mm 2 m/s 742 mmHg 62%
20:00 +12°C° 0 mm 2 m/s 742 mmHg 70%
21:00 +10°C° 0 mm 2 m/s 742 mmHg 73%
22:00 +9°C° 0 mm 2 m/s 742 mmHg 76%
23:00 +9°C° 0 mm 1 m/s 742 mmHg 79%

23 Mai, Duminică

Timp Temperatura Precipitaţii Vânt Presiune Umiditate
00:00 +8°C° 0 mm 2 m/s 742 mmHg 81%
01:00 +8°C° 0 mm 2 m/s 742 mmHg 84%
02:00 +7°C° 0 mm 2 m/s 742 mmHg 86%
03:00 +8°C° 0 mm 2 m/s 742 mmHg 85%
04:00 +9°C° 0 mm 1 m/s 742 mmHg 83%
05:00 +10°C° 0 mm 1 m/s 741 mmHg 82%
06:00 +12°C° 0 mm 2 m/s 741 mmHg 76%
07:00 +14°C° 0 mm 2 m/s 741 mmHg 70%
08:00 +16°C° 0 mm 3 m/s 740 mmHg 63%
09:00 +17°C° 0 mm 3 m/s 740 mmHg 61%
10:00 +17°C° 0 mm 3 m/s 739 mmHg 59%
11:00 +18°C° 0 mm 3 m/s 739 mmHg 56%
12:00 +18°C° 0 mm 3 m/s 738 mmHg 57%
13:00 +18°C° 0 mm 3 m/s 738 mmHg 58%
14:00 +18°C° 0 mm 3 m/s 737 mmHg 59%
15:00 +17°C° 0.1 mm 3 m/s 736 mmHg 63%
16:00 +17°C° 0.1 mm 3 m/s 736 mmHg 67%
17:00 +17°C° 0.1 mm 3 m/s 735 mmHg 71%
18:00 +14°C° 1.7 mm 3 m/s 735 mmHg 79%
19:00 +13°C° 1.7 mm 3 m/s 735 mmHg 87%
20:00 +11°C° 1.7 mm 4 m/s 735 mmHg 95%
21:00 +11°C° 0.2 mm 4 m/s 735 mmHg 93%
22:00 +9°C° 0.2 mm 5 m/s 736 mmHg 92%
23:00 +9°C° 0.2 mm 5 m/s 737 mmHg 91%
Arată mai mult

Formular de consimțământ

Meteoprog și furnizorii noștri de servicii pot stoca și accesa date personale, precum cookies, identificatori de dispozitiv sau alte tehnologii similare pe dispozitivul dumneavoastră și procesa astfel de date pentru a personaliza conținutul și reclamele, dar și pentru a oferi caracteristici de social media și pentru a analiza traficul.

  • Stocarea și/sau accesarea informațiilor pe dispozitivul dumneavoastră

    Cookies, identificatori de dispozitiv sau alte informații pot fi stocate sau accesate pe dispozitiv în scopurile indicate mai sus.

  • Reclame și conținut personalizat, evaluarea reclamelor și a conținutului, informații despre audiențe și dezvoltarea produselor

    Reclamele și conținutul pot fi personalizate pe baza unui profil. Pot fi adăugate date suplimentare pentru a personaliza mai bine reclamele și conținutul. Performanța reclamelor și conținutului poate fi măsurată. Pot fi obținute informații despre utilizatorii care au văzut reclamele și conținutul. Aceste date pot fi utilizate pentru a dezvolta sau îmbunătăți experiența utilizatorilor, sistemele și software-ul.

Dând clic pe ‘Sunt de acord’, permiteți utilizarea cookie-urilor menționate, a identificatorilor de dispozitiv, balizelor web sau altor tehnologii similare. Setările pot fi modificate din browser-ul dispozitivului dumneavoastră.

În anumite scopuri, interesele legitime pot prima asupra consimțământului. Puteți citi mai multe informații în acest sens în Politica privind Confidențialitatea Datelor și Cookie.